sat.trackr.live / text

‹ back to catalog

STARLINK-11075 [DTC]

NORAD 58706 · 2024-002B

PAYLOAD ACTIVE UNKNOWN

§ Identity

Operator
Country
US
Launch date
2024-01-03
Launch site
AFWTR
Launch vehicle
Mass (kg)
RCS (m²)

Purposes: comms

External: N2YO · Heavens-Above · Gunter

§ Orbital elements

Epoch: 2026-09-19T23:45:21.446784Z

Period
91.14 min
Inclination
53.1454°
Eccentricity
0.0002104
Mean motion
15.79912305 rev/d
Perigee alt
329.3 km
Apogee alt
332.1 km
Semi-major
6,708.8 km
B*
4.8414e-4
RAAN
33.2763°
Arg perigee
287.6925°
Mean anomaly
72.3867°
Rev number
15,699

§ Raw data

STARLINK-11075 [DTC]1 58706U 24002B   26262.98983156  .00091730  00000+0  48414-3 0  99942 58706  53.1454  33.2763 0002104 287.6925  72.3867 15.79912305156995

JSON: /api/v1/satellites/58706 · /tle

For live sub-satellite position, see the globe view (requires WebGL).

§ Visibility from observer

Set your observer location to see the next 7 days of passes ≥ 10°. The values pass through the URL so the page stays shareable.

No JS? Fill the form by hand. The geolocation button needs JavaScript.